User: anonymous   Login
Location: Unspecified
(0.0000°N, 0.0000°E)
Time: 22:42:00
(UTC+00:00)
Language:

Tiros 6 - Orbit

View from above orbital plane
View from above orbital plane
View from above satellite
View from above satellite

Ground track
Ground track

The orbit data is extracted from the following two-line orbital elements,

1 00397U 62047A   18174.75637561 -.00000108  00000-0  11737-4 0  9992
2 00397  58.3058 262.7628 0015284  94.2115 266.0677 14.88298101999031
Epoch (UTC): 23 June 2018 18:09:10
Eccentricity: 0.0015284
inclination: 58.3058°
perigee height: 592 km
apogee height: 614 km
right ascension of ascending node: 262.7628°
argument of perigee: 94.2115°
revolutions per day: 14.88298101
mean anomaly at epoch: 266.0677°
orbit number at epoch: 99903

The dashed part of the orbit path shows where the satellite is in the earth's shadow,  

DLR